• In Deutschland
  • Länderverzeichnis
  • Für 7 Tage
  • Wassertemperatur
  • Satellitenkarten
  • Wetterkarte
  • Widgets
  • user-avatar
    Anmelden

    Stündliche Wetter Rottach-Egern

    Heute, 23 Oktober, Montag

    Zeit Temperatur Niederschläge Wind Luftdruck Luftfeuchtigkeit
    00:00 -1°C° 0,8 mm 3 m/S 646 mmHg 95%
    01:00 +1°C° 0 mm 2 m/S 646 mmHg 95%
    02:00 +1°C° 0,6 mm 2 m/S 646 mmHg 95%
    03:00 0°C° 0,6 mm 3 m/S 646 mmHg 95%
    04:00 -1°C° 0,6 mm 3 m/S 646 mmHg 95%
    05:00 -1°C° 0,7 mm 3 m/S 646 mmHg 95%
    06:00 -1°C° 0,7 mm 2 m/S 646 mmHg 95%
    07:00 -1°C° 0 mm 2 m/S 646 mmHg 95%
    08:00 -1°C° 0,6 mm 2 m/S 646 mmHg 94%
    09:00 0°C° 0,6 mm 3 m/S 647 mmHg 93%
    10:00 0°C° 0,6 mm 3 m/S 647 mmHg 91%
    11:00 +1°C° 0,7 mm 3 m/S 647 mmHg 91%
    12:00 +1°C° 0,7 mm 3 m/S 647 mmHg 90%
    13:00 +1°C° 0,7 mm 3 m/S 648 mmHg 90%
    14:00 +1°C° 0,7 mm 3 m/S 648 mmHg 91%
    15:00 +2°C° 0,7 mm 2 m/S 648 mmHg 92%
    16:00 +2°C° 0,7 mm 2 m/S 648 mmHg 92%
    17:00 +2°C° 0,9 mm 2 m/S 648 mmHg 93%
    18:00 +1°C° 0,9 mm 2 m/S 649 mmHg 94%
    19:00 +1°C° 0,9 mm 2 m/S 649 mmHg 95%
    20:00 +1°C° 1 mm 2 m/S 649 mmHg 96%
    21:00 +1°C° 1 mm 2 m/S 650 mmHg 96%
    22:00 +1°C° 1 mm 2 m/S 650 mmHg 96%
    23:00 +1°C° 0,7 mm 2 m/S 650 mmHg 96%

    Morgen, 24 Oktober, Dienstag

    Zeit Temperatur Niederschläge Wind Luftdruck Luftfeuchtigkeit
    00:00 +1°C° 0,7 mm 2 m/S 651 mmHg 96%
    01:00 +1°C° 0,7 mm 2 m/S 651 mmHg 96%
    02:00 +1°C° 0,4 mm 2 m/S 651 mmHg 96%
    03:00 +1°C° 0,4 mm 2 m/S 651 mmHg 96%
    04:00 +1°C° 0,4 mm 2 m/S 651 mmHg 96%
    05:00 +1°C° 0,2 mm 2 m/S 651 mmHg 96%
    06:00 +1°C° 0,2 mm 2 m/S 652 mmHg 96%
    07:00 +1°C° 0,2 mm 2 m/S 652 mmHg 95%
    08:00 +2°C° 0 mm 2 m/S 652 mmHg 93%
    09:00 +3°C° 0 mm 2 m/S 652 mmHg 91%
    10:00 +4°C° 0 mm 2 m/S 653 mmHg 89%
    11:00 +5°C° 0 mm 2 m/S 653 mmHg 87%
    12:00 +5°C° 0 mm 2 m/S 653 mmHg 84%
    13:00 +7°C° 0 mm 1 m/S 653 mmHg 82%
    14:00 +7°C° 0 mm 1 m/S 653 mmHg 83%
    15:00 +7°C° 0 mm 1 m/S 652 mmHg 85%
    16:00 +6°C° 0 mm 1 m/S 652 mmHg 86%
    17:00 +5°C° 0 mm 1 m/S 653 mmHg 88%
    18:00 +5°C° 0 mm 1 m/S 653 mmHg 89%
    19:00 +3°C° 0 mm 2 m/S 653 mmHg 90%
    20:00 +2°C° 0 mm 2 m/S 653 mmHg 90%
    21:00 +2°C° 0 mm 2 m/S 653 mmHg 90%
    22:00 +2°C° 0 mm 2 m/S 653 mmHg 91%
    23:00 +2°C° 0 mm 2 m/S 653 mmHg 89%

    übermorgen, 25 Oktober, Mittwoch

    Zeit Temperatur Niederschläge Wind Luftdruck Luftfeuchtigkeit
    00:00 +2°C° 0 mm 2 m/S 653 mmHg 87%
    01:00 +2°C° 0 mm 2 m/S 652 mmHg 86%
    02:00 +2°C° 0 mm 2 m/S 652 mmHg 85%
    03:00 +3°C° 0 mm 2 m/S 652 mmHg 84%
    04:00 +3°C° 0 mm 2 m/S 652 mmHg 83%
    05:00 +3°C° 0 mm 2 m/S 652 mmHg 83%
    06:00 +3°C° 0 mm 2 m/S 652 mmHg 84%
    07:00 +2°C° 0 mm 2 m/S 652 mmHg 85%
    08:00 +5°C° 0 mm 1 m/S 653 mmHg 83%
    09:00 +7°C° 0 mm 1 m/S 653 mmHg 80%
    10:00 +9°C° 0 mm 1 m/S 654 mmHg 78%
    11:00 +10°C° 0 mm 1 m/S 654 mmHg 76%
    12:00 +11°C° 0 mm 1 m/S 654 mmHg 74%
    13:00 +12°C° 0 mm 0 m/S 655 mmHg 72%
    14:00 +11°C° 0 mm 0 m/S 654 mmHg 76%
    15:00 +10°C° 0 mm 0 m/S 654 mmHg 79%
    16:00 +10°C° 0 mm 0 m/S 654 mmHg 83%
    17:00 +9°C° 0 mm 1 m/S 654 mmHg 85%
    18:00 +8°C° 0 mm 1 m/S 654 mmHg 87%
    19:00 +6°C° 0 mm 1 m/S 654 mmHg 89%
    20:00 +6°C° 0 mm 1 m/S 654 mmHg 89%
    21:00 +6°C° 0 mm 1 m/S 654 mmHg 88%
    22:00 +5°C° 0 mm 1 m/S 654 mmHg 88%
    23:00 +5°C° 0 mm 1 m/S 654 mmHg 87%

    26 Oktober, Donnerstag

    Zeit Temperatur Niederschläge Wind Luftdruck Luftfeuchtigkeit
    00:00 +5°C° 0 mm 1 m/S 654 mmHg 86%
    01:00 +5°C° 0 mm 1 m/S 654 mmHg 86%
    02:00 +5°C° 0 mm 1 m/S 654 mmHg 84%
    03:00 +4°C° 0 mm 2 m/S 654 mmHg 83%
    04:00 +3°C° 0 mm 2 m/S 654 mmHg 82%
    05:00 +3°C° 0 mm 2 m/S 653 mmHg 80%
    06:00 +3°C° 0 mm 2 m/S 653 mmHg 79%
    07:00 +3°C° 0 mm 2 m/S 653 mmHg 78%
    08:00 +7°C° 0 mm 1 m/S 654 mmHg 75%
    09:00 +9°C° 0 mm 1 m/S 655 mmHg 73%
    10:00 +11°C° 0 mm 1 m/S 655 mmHg 71%
    11:00 +12°C° 0 mm 1 m/S 655 mmHg 68%
    12:00 +13°C° 0 mm 1 m/S 656 mmHg 66%
    13:00 +14°C° 0 mm 1 m/S 656 mmHg 63%
    14:00 +14°C° 0 mm 1 m/S 655 mmHg 68%
    15:00 +13°C° 0 mm 1 m/S 655 mmHg 73%
    16:00 +12°C° 0 mm 1 m/S 654 mmHg 78%
    17:00 +10°C° 0 mm 1 m/S 654 mmHg 81%
    18:00 +9°C° 0 mm 1 m/S 654 mmHg 83%
    19:00 +6°C° 0 mm 2 m/S 653 mmHg 86%
    20:00 +6°C° 0 mm 2 m/S 653 mmHg 84%
    21:00 +6°C° 0 mm 2 m/S 653 mmHg 83%
    22:00 +5°C° 0 mm 2 m/S 653 mmHg 82%
    23:00 +5°C° 0 mm 2 m/S 653 mmHg 80%

    27 Oktober, Freitag

    Zeit Temperatur Niederschläge Wind Luftdruck Luftfeuchtigkeit
    00:00 +5°C° 0 mm 2 m/S 653 mmHg 78%
    01:00 +5°C° 0 mm 2 m/S 652 mmHg 77%
    02:00 +5°C° 0 mm 2 m/S 652 mmHg 76%
    03:00 +5°C° 0 mm 2 m/S 652 mmHg 75%
    04:00 +4°C° 0 mm 2 m/S 652 mmHg 74%
    05:00 +4°C° 0 mm 2 m/S 651 mmHg 74%
    06:00 +4°C° 0 mm 2 m/S 651 mmHg 74%
    07:00 +4°C° 0 mm 2 m/S 651 mmHg 75%
    08:00 +6°C° 0 mm 2 m/S 651 mmHg 73%
    09:00 +8°C° 0 mm 2 m/S 652 mmHg 72%
    10:00 +10°C° 0 mm 2 m/S 652 mmHg 71%
    11:00 +10°C° 0 mm 3 m/S 652 mmHg 70%
    12:00 +11°C° 0 mm 4 m/S 651 mmHg 70%
    13:00 +11°C° 0 mm 4 m/S 651 mmHg 69%
    14:00 +10°C° 0,4 mm 4 m/S 651 mmHg 76%
    15:00 +9°C° 0,4 mm 3 m/S 650 mmHg 83%
    16:00 +7°C° 0,4 mm 3 m/S 650 mmHg 90%
    17:00 +7°C° 2 mm 3 m/S 650 mmHg 92%
    18:00 +5°C° 2 mm 3 m/S 650 mmHg 94%
    19:00 +4°C° 2 mm 3 m/S 649 mmHg 96%
    20:00 +3°C° 2,6 mm 3 m/S 650 mmHg 96%
    21:00 +4°C° 2,6 mm 2 m/S 650 mmHg 96%
    22:00 +3°C° 2,6 mm 2 m/S 650 mmHg 96%
    23:00 +3°C° 0,3 mm 2 m/S 650 mmHg 96%

    28 Oktober, Samstag

    Zeit Temperatur Niederschläge Wind Luftdruck Luftfeuchtigkeit
    00:00 +3°C° 0,3 mm 2 m/S 650 mmHg 96%
    01:00 +2°C° 0,3 mm 2 m/S 651 mmHg 95%
    02:00 +2°C° 0,1 mm 2 m/S 651 mmHg 96%
    03:00 +1°C° 0,1 mm 2 m/S 650 mmHg 96%
    04:00 +1°C° 0,1 mm 2 m/S 650 mmHg 96%
    05:00 +1°C° 0,1 mm 2 m/S 650 mmHg 96%
    06:00 -1°C° 0,1 mm 2 m/S 650 mmHg 96%
    07:00 -1°C° 0,1 mm 2 m/S 650 mmHg 96%
    08:00 -1°C° 0,1 mm 2 m/S 651 mmHg 93%
    09:00 0°C° 0,1 mm 3 m/S 651 mmHg 91%
    10:00 +1°C° 0,1 mm 3 m/S 651 mmHg 88%
    11:00 +1°C° 0,1 mm 3 m/S 651 mmHg 84%
    12:00 +2°C° 0,1 mm 3 m/S 651 mmHg 81%
    13:00 +1°C° 0,1 mm 4 m/S 650 mmHg 78%
    14:00 +1°C° 0,2 mm 4 m/S 650 mmHg 80%
    15:00 +1°C° 0,2 mm 3 m/S 650 mmHg 82%
    16:00 +1°C° 0,2 mm 3 m/S 650 mmHg 84%
    17:00 +1°C° 0,3 mm 3 m/S 650 mmHg 86%
    18:00 0°C° 0,3 mm 3 m/S 650 mmHg 88%
    19:00 0°C° 0,3 mm 3 m/S 651 mmHg 90%
    20:00 0°C° 0,2 mm 3 m/S 651 mmHg 91%
    21:00 0°C° 0,2 mm 3 m/S 651 mmHg 91%
    22:00 0°C° 0,2 mm 3 m/S 651 mmHg 92%
    23:00 -1°C° 0,1 mm 3 m/S 651 mmHg 92%

    29 Oktober, Sonntag

    Zeit Temperatur Niederschläge Wind Luftdruck Luftfeuchtigkeit
    00:00 -1°C° 0,1 mm 3 m/S 651 mmHg 92%
    01:00 -1°C° 0,1 mm 3 m/S 651 mmHg 92%
    02:00 -1°C° 0,1 mm 3 m/S 651 mmHg 92%
    03:00 -1°C° 0,1 mm 3 m/S 650 mmHg 91%
    04:00 -1°C° 0,1 mm 3 m/S 650 mmHg 91%
    05:00 -1°C° 0,1 mm 3 m/S 650 mmHg 91%
    06:00 -1°C° 0,1 mm 3 m/S 650 mmHg 91%
    07:00 -2°C° 0,1 mm 3 m/S 650 mmHg 90%
    08:00 +1°C° 0 mm 2 m/S 650 mmHg 87%
    09:00 +2°C° 0 mm 2 m/S 650 mmHg 84%
    10:00 +3°C° 0 mm 2 m/S 650 mmHg 81%
    11:00 +3°C° 0 mm 2 m/S 650 mmHg 79%
    12:00 +4°C° 0 mm 2 m/S 649 mmHg 77%
    13:00 +5°C° 0 mm 2 m/S 649 mmHg 76%
    14:00 +4°C° 0,3 mm 2 m/S 649 mmHg 80%
    15:00 +4°C° 0,3 mm 2 m/S 648 mmHg 85%
    16:00 +3°C° 0,3 mm 2 m/S 648 mmHg 90%
    17:00 +3°C° 0,2 mm 2 m/S 648 mmHg 91%
    18:00 +2°C° 0,2 mm 2 m/S 648 mmHg 92%
    19:00 +2°C° 0,2 mm 2 m/S 648 mmHg 93%
    20:00 +1°C° 0 mm 2 m/S 648 mmHg 93%
    21:00 +1°C° 0 mm 2 m/S 647 mmHg 94%
    22:00 -1°C° 0 mm 2 m/S 647 mmHg 94%
    23:00 -1°C° 0,1 mm 3 m/S 646 mmHg 93%
    Mehr zeigen